Zurück zum Katalog

ELEKTRON 1 DEB *

AktivUNKNOWN
NORAD 18589·DEBRIS·🇷🇺 Russia

Gestartet Jan 30, 1964 von Baikonur Cosmodrome

Loading…

Nächste Überflüge (nächste 24 Stunden)

TLE

AktuellSource: Space-Track

Epoche: Sep 14, 2026, 03:46 UTC

1 18589U 64006N   26257.15720978  .00017064  00000-0  69853-1 0  9998
2 18589  58.9529 174.4544 2078966  83.0256 300.0956  9.98029425447862

Verfolge ELEKTRON 1 DEB * in Echtzeit mit AllMySat

Download on the App Store